TimeEST,TemperatureF,Dew PointF,Humidity,Sea Level PressureIn,VisibilityMPH,Wind Direction,Wind SpeedMPH,Gust SpeedMPH,PrecipitationIn,Events,Conditions,WindDirDegrees,DateUTC
12:15 AM,48.7,41.2,75,30.29,10.0,Calm,Calm,-,N/A,,Scattered Clouds,0,2013-01-06 05:15:00
12:35 AM,47.8,42.1,80,30.30,10.0,Calm,Calm,-,N/A,,Scattered Clouds,0,2013-01-06 05:35:00
12:55 AM,48.2,41.9,79,30.28,10.0,Calm,Calm,-,N/A,,Scattered Clouds,0,2013-01-06 05:55:00
1:15 AM,47.5,41.7,80,30.26,10.0,Calm,Calm,-,N/A,,Clear,0,2013-01-06 06:15:00
1:35 AM,46.6,42.6,86,30.26,10.0,Calm,Calm,-,N/A,,Clear,0,2013-01-06 06:35:00
1:55 AM,47.7,42.1,81,30.25,10.0,Calm,Calm,-,N/A,,Mostly Cloudy,0,2013-01-06 06:55:00
2:15 AM,48.0,42.3,80,30.24,10.0,Calm,Calm,-,N/A,,Mostly Cloudy,0,2013-01-06 07:15:00
2:35 AM,47.3,42.6,84,30.26,10.0,Calm,Calm,-,N/A,,Mostly Cloudy,0,2013-01-06 07:35:00
2:55 AM,47.7,41.9,80,30.25,10.0,Calm,Calm,-,N/A,,Overcast,0,2013-01-06 07:55:00
3:15 AM,47.7,42.3,82,30.25,10.0,Calm,Calm,-,N/A,,Overcast,0,2013-01-06 08:15:00
3:35 AM,48.2,42.6,81,30.24,10.0,Calm,Calm,-,N/A,,Overcast,0,2013-01-06 08:35:00
3:55 AM,48.2,42.1,79,30.24,10.0,North,3.5,-,N/A,,Overcast,350,2013-01-06 08:55:00
4:15 AM,48.0,41.5,78,30.25,10.0,NNW,3.5,-,N/A,,Overcast,340,2013-01-06 09:15:00
4:35 AM,48.2,41.5,78,30.25,10.0,North,3.5,-,N/A,,Overcast,350,2013-01-06 09:35:00
4:55 AM,48.2,42.1,79,30.25,10.0,Calm,Calm,-,N/A,,Overcast,0,2013-01-06 09:55:00
5:15 AM,48.2,42.3,80,30.25,10.0,Calm,Calm,-,N/A,,Overcast,0,2013-01-06 10:15:00
5:35 AM,48.2,42.3,80,30.24,10.0,Calm,Calm,-,N/A,,Overcast,0,2013-01-06 10:35:00
5:55 AM,48.4,41.9,78,30.23,10.0,Calm,Calm,-,N/A,,Overcast,0,2013-01-06 10:55:00
6:15 AM,48.4,41.5,77,30.24,10.0,Calm,Calm,-,N/A,,Overcast,0,2013-01-06 11:15:00
6:35 AM,48.6,40.6,74,30.24,10.0,Calm,Calm,-,N/A,,Overcast,0,2013-01-06 11:35:00
6:55 AM,48.2,41.0,76,30.26,10.0,Calm,Calm,-,N/A,,Overcast,0,2013-01-06 11:55:00
7:15 AM,48.4,40.5,74,30.27,10.0,Calm,Calm,-,N/A,,Overcast,0,2013-01-06 12:15:00
7:35 AM,48.4,40.5,74,30.27,10.0,Calm,Calm,-,N/A,,Overcast,0,2013-01-06 12:35:00
7:55 AM,48.7,39.2,70,30.27,10.0,Calm,Calm,-,N/A,,Overcast,0,2013-01-06 12:55:00
8:15 AM,49.1,39.4,69,30.26,10.0,Calm,Calm,-,N/A,,Overcast,0,2013-01-06 13:15:00
8:35 AM,49.1,39.4,69,30.28,10.0,Calm,Calm,-,N/A,,Overcast,0,2013-01-06 13:35:00
8:55 AM,49.3,39.2,68,30.28,10.0,Calm,Calm,-,N/A,,Overcast,0,2013-01-06 13:55:00
9:15 AM,49.6,39.2,67,30.28,10.0,Calm,Calm,-,N/A,,Overcast,0,2013-01-06 14:15:00
9:35 AM,50.0,38.8,66,30.28,10.0,Calm,Calm,-,N/A,,Overcast,0,2013-01-06 14:35:00
9:55 AM,50.2,38.3,64,30.28,10.0,North,3.5,-,N/A,,Overcast,360,2013-01-06 14:55:00
10:15 AM,50.5,39.2,65,30.29,10.0,Calm,Calm,-,N/A,,Overcast,0,2013-01-06 15:15:00
10:35 AM,51.1,38.7,63,30.29,10.0,NNW,3.5,-,N/A,,Overcast,340,2013-01-06 15:35:00
10:55 AM,51.1,38.3,62,30.29,10.0,Calm,Calm,-,N/A,,Overcast,0,2013-01-06 15:55:00
11:15 AM,51.8,38.5,60,30.28,10.0,Calm,Calm,-,N/A,,Overcast,0,2013-01-06 16:15:00
11:35 AM,52.7,38.5,58,30.25,10.0,Calm,Calm,-,N/A,,Overcast,0,2013-01-06 16:35:00
11:55 AM,52.9,38.3,58,30.25,10.0,Calm,Calm,-,N/A,,Overcast,0,2013-01-06 16:55:00
12:35 PM,54.0,39.4,58,30.22,10.0,NW,3.5,-,N/A,,Overcast,320,2013-01-06 17:35:00
12:55 PM,54.5,39.2,56,30.22,10.0,NW,4.6,-,N/A,,Overcast,320,2013-01-06 17:55:00
1:15 PM,55.9,39.9,55,30.21,10.0,NW,4.6,-,N/A,,Overcast,320,2013-01-06 18:15:00
1:35 PM,56.3,40.6,56,30.21,10.0,NW,3.5,-,N/A,,Overcast,310,2013-01-06 18:35:00
1:55 PM,55.8,41.2,58,30.20,10.0,NW,4.6,-,N/A,,Overcast,320,2013-01-06 18:55:00
2:15 PM,56.1,41.4,58,30.18,10.0,West,3.5,-,N/A,,Overcast,260,2013-01-06 19:15:00
2:35 PM,55.6,42.4,61,30.18,10.0,WNW,3.5,-,N/A,,Overcast,290,2013-01-06 19:35:00
2:55 PM,55.6,42.8,62,30.18,10.0,West,4.6,-,N/A,,Overcast,270,2013-01-06 19:55:00
3:15 PM,55.9,43.3,63,30.17,10.0,Calm,Calm,-,N/A,,Overcast,0,2013-01-06 20:15:00
3:35 PM,56.3,43.2,61,30.17,10.0,Calm,Calm,-,N/A,,Overcast,0,2013-01-06 20:35:00
4:15 PM,54.9,44.4,68,30.18,10.0,West,3.5,-,N/A,Rain,Light Rain,260,2013-01-06 21:15:00
4:35 PM,54.5,46.6,75,30.18,10.0,Calm,Calm,-,N/A,,Overcast,0,2013-01-06 21:35:00
4:55 PM,54.5,46.4,74,30.18,10.0,SW,3.5,-,N/A,,Overcast,220,2013-01-06 21:55:00
5:15 PM,54.1,46.4,75,30.18,10.0,Calm,Calm,-,N/A,,Overcast,0,2013-01-06 22:15:00
5:35 PM,53.8,46.4,76,30.18,10.0,Calm,Calm,-,N/A,,Overcast,0,2013-01-06 22:35:00
5:55 PM,53.6,46.4,77,30.18,10.0,Calm,Calm,-,N/A,,Overcast,0,2013-01-06 22:55:00
6:15 PM,52.9,46.4,79,30.18,10.0,Calm,Calm,-,N/A,,Mostly Cloudy,0,2013-01-06 23:15:00
6:35 PM,52.7,46.4,79,30.19,10.0,Calm,Calm,-,N/A,,Mostly Cloudy,0,2013-01-06 23:35:00
6:55 PM,52.0,46.4,81,30.19,10.0,Calm,Calm,-,N/A,,Mostly Cloudy,0,2013-01-06 23:55:00
7:15 PM,51.8,46.6,82,30.20,10.0,Calm,Calm,-,N/A,,Overcast,0,2013-01-07 00:15:00
7:35 PM,51.6,46.8,83,30.21,10.0,Calm,Calm,-,N/A,,Overcast,0,2013-01-07 00:35:00
7:55 PM,51.3,45.7,81,30.21,10.0,Calm,Calm,-,N/A,,Scattered Clouds,0,2013-01-07 00:55:00
8:15 PM,50.4,45.5,83,30.22,10.0,Calm,Calm,-,N/A,,Scattered Clouds,0,2013-01-07 01:15:00
8:35 PM,50.4,43.9,78,30.22,10.0,Calm,Calm,-,N/A,,Scattered Clouds,0,2013-01-07 01:35:00
8:55 PM,50.0,43.2,77,30.22,10.0,Calm,Calm,-,N/A,,Clear,0,2013-01-07 01:55:00
9:15 PM,49.1,43.2,80,30.23,10.0,Calm,Calm,-,N/A,,Clear,0,2013-01-07 02:15:00
9:35 PM,48.7,43.0,80,30.24,10.0,Calm,Calm,-,N/A,,Clear,0,2013-01-07 02:35:00
9:55 PM,48.6,42.8,80,30.25,10.0,WNW,3.5,-,N/A,,Clear,300,2013-01-07 02:55:00
10:15 PM,47.7,42.8,83,30.25,10.0,NW,3.5,-,N/A,,Clear,310,2013-01-07 03:15:00
10:35 PM,47.5,42.4,83,30.26,10.0,Calm,Calm,-,N/A,,Clear,0,2013-01-07 03:35:00
11:35 PM,46.9,41.0,80,30.28,10.0,Calm,Calm,-,N/A,,Clear,0,2013-01-07 04:35:00
11:55 PM,46.4,39.9,78,30.28,10.0,NNW,4.6,-,N/A,,Clear,340,2013-01-07 04:55:00